PHTOPHLI

Guest
Details From PHTO - Hilo Intl
To PHLI - Lihue - Kauai
Flight Number -
Tags Generated
Created
Modified
Stats Distance 276 nm / 512 km
Max Altitude 0 ft / 0 m
Waypoints 3
Social Downloads 3
Likes 0
Share VATSIM

Download

Looking for another format? Having issues loading an existing format? Contact us
Advertisement - Login to hide

Notes

Generated

Route

PHTO LIH PHLI

ID Type Via Altitude Latitude Longitude Leg Dist Tot Dist Heading (true) Name
O PHTO APT - 0 ft / 0 m 19.71251˚ -155.06242˚ - 0 nm - -
LIH VOR - 0 ft / 0 m 21.96525˚ -159.33811˚ 275 nm 275 nm 300° / 299° LIHUE VORTAC
O PHLI APT - 0 ft / 0 m 21.97291˚ -159.34882˚ 0 nm 276 nm 308° / 308° -

Altitude Profile

Advertisement - Login to hide

Weather


0- 5 10 15 20 25 30 35+ Temperature / ° C

Clouds and Precipitation
Forecast for 2018-05-24 00:00 UTC. Updated 4 hours ago

Ground ~20,000 ft ~40,000 ft Winds

PHTO

Details ICAO PHTO (ITO)
Name Hilo Intl
Region USA (Hawaii)
Timezone Pacific/Honolulu (UTC-10.0)
Stats Elevation 38 ft / 12 m (AMSL)
Location 19.719847° -155.050388°
Runways 2
Magnetic Variation 9.475° E

METAR

PHTO 240253Z 04006KT 10SM OVC055 26/18 A3002

Decode

TAF

TAF PHTO 232332Z 2400/2424 04009KT P6SM SCT025 BKN040 FM240600 25005KT P6SM VCSH SCT025 BKN045 FM242000 05009KT P6SM SCT025 BKN045

Decode

Departure Runways

ID Width Length Bearing (true) Bearing (mag) Surface Threshold Offset Overrun Length
03 151 ft / 46 m 5,630 ft / 1,716 m 40.57° 31.10° Asphalt 384 ft / 117 m 0 ft / 0 m
08 151 ft / 46 m 9,810 ft / 2,990 m 90.04° 80.57° Asphalt 0 ft / 0 m 1,152 ft / 351 m
21 151 ft / 46 m 5,630 ft / 1,716 m 220.57° 211.10° Asphalt 0 ft / 0 m 0 ft / 0 m
26 151 ft / 46 m 9,810 ft / 2,990 m 270.05° 260.58° Asphalt 0 ft / 0 m 197 ft / 60 m

PHLI

Details ICAO PHLI (LIH)
Name Lihue - Kauai
Region USA (Hawaii)
Timezone Pacific/Honolulu (UTC-10.0)
Stats Elevation 153 ft / 47 m (AMSL)
Location 21.975984° -159.338958°
Runways 2
Magnetic Variation 9.442° E

METAR

PHLI 240253Z 05017KT 10SM FEW022 25/21 A3005

Decode

TAF

TAF PHLI 232332Z 2400/2424 05016KT P6SM VCSH SCT025 BKN045 FM240600 04012KT P6SM VCSH SCT025 BKN045 FM242000 05016KT P6SM VCSH SCT025 BKN045

Decode

Destination Runways

ID Width Length Bearing (true) Bearing (mag) Surface Threshold Offset Overrun Length
03 151 ft / 46 m 6,510 ft / 1,984 m 44.84° 35.40° Asphalt 0 ft / 0 m 230 ft / 70 m
17 151 ft / 46 m 6,529 ft / 1,990 m 180.01° 170.57° Asphalt 0 ft / 0 m 200 ft / 61 m
21 151 ft / 46 m 6,510 ft / 1,984 m 224.84° 215.40° Asphalt 203 ft / 62 m 92 ft / 28 m
35 151 ft / 46 m 6,529 ft / 1,990 m 0.01° 350.57° Asphalt 0 ft / 0 m 213 ft / 65 m

Approach Navaids

Runway Type Ident Frequency Range Bearing (true) Bearing (mag) Slope Elevation
35 Localiser ILIH 110.90 MHz 18 nm / 33 km 0.01° 350.57° - 92 ft / 28 m (AMSL)
35 Glidescope ILIH 110.90 MHz 10 nm / 19 km 0.01° 350.57° 3.00° 92 ft / 28 m (AMSL)
35 DME ILIH 110.90 MHz 18 nm / 33 km - - - 92 ft / 28 m (AMSL)

Popular Alternatives